| time (UTC) | temp F | wind direction | speed MPH | gust MPH | rain 1hr in | rain 24hr in | rain mn in | humidity % | barometer mb |
| 20260901233039 | 76 | 328 | 0.0 | 0.0 | 0.00 | 0.00 | 0.00 | 64 | 1010.9 |
| 20260901231547 | 77 | 328 | 0.0 | 3.0 | 0.00 | 0.00 | 0.00 | 59 | 1010.8 |
| 20260901230039 | 78 | 292 | 0.0 | 3.0 | 0.00 | 0.00 | 0.00 | 57 | 1010.9 |
| 20260901224537 | 80 | 15 | 0.0 | 3.0 | 0.00 | 0.00 | 0.00 | 58 | 1010.8 |
| 20260901223038 | 80 | 304 | 0.0 | 3.0 | 0.00 | 0.00 | 0.00 | 54 | 1010.7 |
| 20260901221536 | 82 | 42 | 0.0 | 5.0 | 0.00 | 0.00 | 0.00 | 54 | 1010.5 |
| 20260901214534 | 84 | 5 | 0.0 | 1.0 | 0.00 | 0.00 | 0.00 | 55 | 1010.3 |
| 20260901213100 | 84 | 299 | 0.0 | 5.0 | 0.00 | 0.00 | 0.00 | 54 | 1010.2 |
| 20260901211534 | 84 | 5 | 1.0 | 5.0 | 0.00 | 0.00 | 0.00 | 54 | 1010.2 |
| 20260901210035 | 85 | 355 | 1.0 | 6.0 | 0.00 | 0.00 | 0.00 | 53 | 1010.2 |
| 20260901204537 | 85 | 35 | 0.0 | 4.0 | 0.00 | 0.00 | 0.00 | 56 | 1010.3 |
| 20260901203048 | 85 | 15 | 0.0 | 6.0 | 0.00 | 0.00 | 0.00 | 57 | 1010.4 |
| 20260901201530 | 86 | 24 | 0.0 | 5.0 | 0.00 | 0.00 | 0.00 | 53 | 1010.4 |
| 20260901200034 | 87 | 324 | 0.0 | 7.0 | 0.00 | 0.00 | 0.00 | 56 | 1010.4 |
| 20260901194536 | 87 | 355 | 2.0 | 7.0 | 0.00 | 0.00 | 0.00 | 54 | 1010.3 |
| 20260901193026 | 88 | 337 | 1.0 | 4.0 | 0.00 | 0.00 | 0.00 | 45 | 1010.5 |
| 20260901191523 | 87 | 323 | 2.0 | 6.0 | 0.00 | 0.00 | 0.00 | 48 | 1010.8 |
| 20260901190023 | 87 | 264 | 0.0 | 8.0 | 0.00 | 0.00 | 0.00 | 48 | 1010.9 |
| 20260901184527 | 87 | 175 | 1.0 | 7.0 | 0.00 | 0.00 | 0.00 | 46 | 1011.2 |
| 20260901183027 | 86 | 57 | 1.0 | 7.0 | 0.00 | 0.00 | 0.00 | 48 | 1011.2 |
| 20260901181515 | 86 | 234 | 2.0 | 7.0 | 0.00 | 0.00 | 0.00 | 50 | 1011.4 |
| 20260901180011 | 85 | 88 | 1.0 | 5.0 | 0.00 | 0.00 | 0.00 | 55 | 1011.5 |
| 20260901174511 | 85 | 144 | 1.0 | 7.0 | 0.00 | 0.00 | 0.00 | 52 | 1011.6 |
| 20260901173007 | 85 | 296 | 2.0 | 5.0 | 0.00 | 0.00 | 0.00 | 51 | 1012.0 |
| 20260901171505 | 84 | 242 | 1.0 | 7.0 | 0.00 | 0.00 | 0.00 | 56 | 1012.1 |
| 20260901170002 | 84 | 307 | 1.0 | 7.0 | 0.00 | 0.00 | 0.00 | 58 | 1012.2 |
| 20260901164613 | 83 | 156 | 1.0 | 4.0 | 0.00 | 0.00 | 0.00 | 64 | 1012.3 |
| 20260901163056 | 83 | 257 | 1.0 | 5.0 | 0.00 | 0.00 | 0.00 | 68 | 1012.4 |
| 20260901161555 | 82 | 282 | 2.0 | 6.0 | 0.00 | 0.00 | 0.00 | 67 | 1012.3 |
| 20260901160056 | 82 | 291 | 1.0 | 4.0 | 0.00 | 0.00 | 0.00 | 68 | 1012.4 |
| 20260901154552 | 81 | 277 | 2.0 | 4.0 | 0.00 | 0.00 | 0.00 | 69 | 1012.4 |
| 20260901153047 | 80 | 200 | 1.0 | 5.0 | 0.00 | 0.00 | 0.00 | 70 | 1012.3 |
| 20260901151544 | 79 | 260 | 0.0 | 5.0 | 0.00 | 0.00 | 0.00 | 77 | 1012.2 |
| 20260901150040 | 78 | 198 | 0.0 | 2.0 | 0.00 | 0.00 | 0.00 | 79 | 1012.3 |
| 20260901144535 | 76 | 163 | 0.0 | 2.0 | 0.00 | 0.00 | 0.00 | 83 | 1012.3 |
| 20260901143042 | 74 | 135 | 0.0 | 3.0 | 0.00 | 0.00 | 0.00 | 89 | 1012.6 |
| 20260901141527 | 72 | 169 | 0.0 | 3.0 | 0.00 | 0.00 | 0.00 | 96 | 1012.8 |
| 20260901140035 | 70 | 189 | 0.0 | 2.0 | 0.00 | 0.00 | 0.00 | 100 | 1013.0 |
| 20260901134523 | 69 | 160 | 0.0 | 2.0 | 0.00 | 0.00 | 0.00 | 100 | 1013.0 |
| 20260901133016 | 67 | 234 | 0.0 | 0.0 | 0.00 | 0.00 | 0.00 | 100 | 1012.9 |
| 20260901131515 | 66 | 234 | 0.0 | 0.0 | 0.00 | 0.00 | 0.00 | 100 | 1012.9 |
| 20260901130030 | 66 | 234 | 0.0 | 0.0 | 0.00 | 0.00 | 0.00 | 100 | 1012.8 |
| 20260901124507 | 64 | 234 | 0.0 | 0.0 | 0.00 | 0.00 | 0.00 | 100 | 1012.7 |
| 20260901123008 | 62 | 234 | 0.0 | 0.0 | 0.00 | 0.00 | 0.00 | 100 | 1012.7 |
| 20260901121503 | 61 | 234 | 0.0 | 0.0 | 0.00 | 0.00 | 0.00 | 100 | 1012.8 |
| 20260901120001 | 60 | 234 | 0.0 | 0.0 | 0.00 | 0.00 | 0.00 | 100 | 1012.7 |
| 20260901114559 | 59 | 234 | 0.0 | 0.0 | 0.00 | 0.00 | 0.00 | 100 | 1012.5 |
| 20260901113100 | 59 | 234 | 0.0 | 0.0 | 0.00 | 0.00 | 0.00 | 100 | 1012.5 |
| 20260901111558 | 59 | 234 | 0.0 | 0.0 | 0.00 | 0.00 | 0.00 | 100 | 1012.4 |
| 20260901110059 | 60 | 234 | 0.0 | 0.0 | 0.00 | 0.00 | 0.00 | 100 | 1012.4 |
| 20260901104556 | 61 | 234 | 0.0 | 0.0 | 0.00 | 0.00 | 0.00 | 100 | 1012.4 |
| 20260901103055 | 60 | 234 | 0.0 | 0.0 | 0.00 | 0.00 | 0.00 | 100 | 1012.4 |
| 20260901101605 | 60 | 234 | 0.0 | 0.0 | 0.00 | 0.00 | 0.00 | 100 | 1012.2 |
| 20260901100053 | 61 | 234 | 0.0 | 0.0 | 0.00 | 0.00 | 0.00 | 100 | 1012.2 |
| 20260901094552 | 61 | 234 | 0.0 | 0.0 | 0.00 | 0.01 | 0.00 | 100 | 1012.2 |
| 20260901093052 | 61 | 234 | 0.0 | 0.0 | 0.00 | 0.01 | 0.00 | 100 | 1012.2 |
| 20260901091552 | 61 | 234 | 0.0 | 0.0 | 0.00 | 0.01 | 0.00 | 100 | 1012.3 |
| 20260901090048 | 61 | 234 | 0.0 | 0.0 | 0.00 | 0.01 | 0.00 | 100 | 1012.4 |
| 20260901084548 | 62 | 234 | 0.0 | 0.0 | 0.00 | 0.04 | 0.00 | 100 | 1012.2 |
| 20260901083048 | 61 | 234 | 0.0 | 0.0 | 0.00 | 0.04 | 0.00 | 100 | 1012.3 |
| 20260901081550 | 62 | 234 | 0.0 | 0.0 | 0.00 | 0.04 | 0.00 | 100 | 1012.2 |
| 20260901080047 | 62 | 234 | 0.0 | 0.0 | 0.00 | 0.04 | 0.00 | 100 | 1012.0 |
| 20260901074547 | 62 | 234 | 0.0 | 0.0 | 0.00 | 0.05 | 0.00 | 100 | 1012.1 |
| 20260901073046 | 61 | 234 | 0.0 | 0.0 | 0.00 | 0.05 | 0.00 | 100 | 1012.1 |
| 20260901071546 | 61 | 234 | 0.0 | 0.0 | 0.00 | 0.05 | 0.00 | 100 | 1012.0 |
| 20260901070044 | 61 | 154 | 0.0 | 0.0 | 0.00 | 0.05 | 0.00 | 100 | 1012.0 |
| 20260901064545 | 61 | 154 | 0.0 | 0.0 | 0.00 | 0.05 | 0.00 | 100 | 1012.0 |
| 20260901063043 | 62 | 154 | 0.0 | 0.0 | 0.00 | 0.05 | 0.00 | 100 | 1012.0 |
| 20260901061543 | 61 | 154 | 0.0 | 0.0 | 0.00 | 0.05 | 0.00 | 100 | 1012.1 |
| 20260901060140 | 61 | 154 | 0.0 | 0.0 | 0.00 | 0.05 | 0.00 | 99 | 1012.2 |
| 20260901054544 | 61 | 154 | 0.0 | 0.0 | 0.00 | 0.05 | 0.00 | 100 | 1012.2 |
| 20260901053101 | 61 | 154 | 0.0 | 0.0 | 0.00 | 0.05 | 0.00 | 99 | 1012.3 |
| 20260901051559 | 61 | 154 | 0.0 | 0.0 | 0.00 | 0.05 | 0.00 | 100 | 1012.3 |
| 20260901050038 | 61 | 154 | 0.0 | 0.0 | 0.00 | 0.05 | 0.00 | 99 | 1012.4 |
| 20260901044551 | 61 | 154 | 0.0 | 0.0 | 0.00 | 0.05 | 0.00 | 99 | 1012.2 |
| 20260901043036 | 61 | 154 | 0.0 | 0.0 | 0.00 | 0.05 | 0.00 | 99 | 1012.1 |
| 20260901041535 | 62 | 154 | 0.0 | 0.0 | 0.00 | 0.05 | 0.00 | 99 | 1012.1 |
| 20260901040037 | 62 | 154 | 0.0 | 0.0 | 0.00 | 0.05 | 0.00 | 99 | 1012.2 |
| 20260901034532 | 62 | 154 | 0.0 | 0.0 | 0.00 | 0.05 | 0.05 | 99 | 1012.0 |
| 20260901033032 | 63 | 154 | 0.0 | 0.0 | 0.00 | 0.05 | 0.05 | 99 | 1011.9 |
| 20260901031532 | 63 | 154 | 0.0 | 0.0 | 0.00 | 0.05 | 0.05 | 98 | 1011.8 |
| 20260901030028 | 63 | 154 | 0.0 | 0.0 | 0.00 | 0.05 | 0.05 | 98 | 1011.9 |
| 20260901024526 | 64 | 154 | 0.0 | 0.0 | 0.00 | 0.05 | 0.05 | 99 | 1011.8 |
| 20260901023036 | 64 | 154 | 0.0 | 0.0 | 0.00 | 0.05 | 0.05 | 98 | 1011.8 |
| 20260901021528 | 64 | 154 | 0.0 | 0.0 | 0.00 | 0.05 | 0.05 | 99 | 1011.9 |
| 20260901020025 | 64 | 154 | 0.0 | 0.0 | 0.00 | 0.05 | 0.05 | 98 | 1011.9 |
| 20260901014524 | 65 | 154 | 0.0 | 0.0 | 0.00 | 0.05 | 0.05 | 98 | 1011.8 |
| 20260901013024 | 65 | 154 | 0.0 | 0.0 | 0.00 | 0.05 | 0.05 | 98 | 1011.7 |
| 20260901011526 | 66 | 154 | 0.0 | 0.0 | 0.00 | 0.05 | 0.05 | 97 | 1011.5 |
| 20260901010022 | 66 | 154 | 0.0 | 0.0 | 0.00 | 0.05 | 0.05 | 97 | 1011.3 |
| 20260901004523 | 67 | 154 | 0.0 | 0.0 | 0.00 | 0.05 | 0.05 | 96 | 1011.2 |
| 20260901003022 | 68 | 154 | 0.0 | 0.0 | 0.00 | 0.05 | 0.05 | 96 | 1011.2 |
| 20260901001521 | 68 | 154 | 0.0 | 0.0 | 0.00 | 0.05 | 0.05 | 96 | 1011.0 |
| 20260901000120 | 68 | 154 | 0.0 | 0.0 | 0.00 | 0.05 | 0.05 | 96 | 1011.1 |
| 20260831234520 | 68 | 154 | 0.0 | 1.0 | 0.00 | 0.05 | 0.05 | 95 | 1011.1 |